Location: Castle
(40.7167°S, 175.9500°E)
Time: 23:47:49
(UTC+00:00)

Cosmos 1825 - Visible Passes

Search period start: 05 November 2024 00:00
Search period end: 15 November 2024 00:00
Orbit: 403 x 406 km, 82.5° (Epoch: 05 November)

Date Brightness Start Highest point End Pass type
(mag) Time Alt. Az. Time Alt. Az. Time Alt. Az.
05 Nov 4.2 15:38:43 10° SSE 15:41:32 26° ESE 15:44:17 10° NE visible
06 Nov 2.0 16:22:08 10° SSW 16:25:17 48° W 16:28:24 10° N visible
07 Nov 3.4 15:32:29 10° S 15:35:32 35° ESE 15:38:31 10° NNE visible
08 Nov 5.3 14:44:57 10° ESE 14:45:21 10° ESE 14:45:46 10° ESE visible
08 Nov 2.4 16:15:56 10° SSW 16:18:56 34° W 16:21:52 10° NNW visible
09 Nov 2.7 15:25:46 10° S 15:28:57 49° E 15:32:05 10° NNE visible
10 Nov 4.8 14:36:52 10° SE 14:38:33 13° ESE 14:40:14 10° ENE visible
10 Nov 2.9 16:09:14 10° SSW 16:11:58 25° W 16:14:40 10° NNW visible
11 Nov 2.0 15:18:31 10° S 15:21:46 70° E 15:24:56 10° NNE visible
12 Nov 4.6 14:28:54 10° SSE 14:31:09 17° ESE 14:33:21 10° ENE visible
12 Nov 3.3 16:02:00 10° SW 16:04:24 19° W 16:06:41 11° NW visible
13 Nov 1.6 15:10:43 10° S 15:13:59 85° W 15:15:46 24° N visible
14 Nov 4.1 14:20:33 10° SSE 14:23:08 22° ESE 14:24:49 15° ENE visible
14 Nov 3.6 15:54:18 10° SW 15:56:16 15° W 15:57:24 13° WNW visible
